Location: Camerons Lookout
(40.9833°S, 175.9333°E)
Time: 01:42:18
(UTC+00:00)

CZ-2C R/B - Pass Details

Date: 14 January 2026
Orbit: 374 x 396 km, 97.7° (Epoch: 6 February)

Event Time Altitude Azimuth Distance (km) Brightness Sun altitude
Rises 10:38:11 0° 180° (S) 2,384 7.1 -23.0°
Reaches altitude 10° 10:40:23 10° 193° (SSW) 1,515 6.1 -23.2°
Maximum altitude 10:43:08 26° 251° (WSW) 877 4.3 -23.4°
Enters shadow 10:43:39 24° 268° (W) 907 4.2 -23.4°
